Location: Calvera
(42.3882°N, 0.6137°E)
Time: 13:49:41
(UTC+00:00)

Cosmos 1833 Rocket - Pass Details

Date: 28 October 2020
Orbit: 832 x 840 km, 71.0° (Epoch: 24 November)

Event Time Altitude Azimuth Distance (km) Brightness Sun altitude
Exits shadow 05:15:41 18° 262° (W) 1,933 4.0 -13.6°
Maximum altitude 05:18:37 28° 306° (NW) 1,535 3.6 -13.1°
Drops below altitude 10° 05:23:26 10° 5° (N) 2,465 5.1 -12.2°
Sets 05:26:15 0° 17° (NNE) 3,404 6.0 -11.7°
